Imrali, Turkey

5:50 AM +03 on June 23, 2017 (GMT +0300)
Imrali

Weather History for 17060 - January, 2013

Change the Weather History Date:

Friday, January 25, 2013

  Actual Average Record
Temperature  
Mean Temperature 50 °F -  
Max Temperature 55 °F 47 °F - ()
Min Temperature 44 °F 37 °F - ()
Degree Days  
Heating Degree Days 16    
Moisture  
Dew Point 44 °F    
Average Humidity 75    
Maximum Humidity 100    
Minimum Humidity 51    
Precipitation  
Precipitation 0.12 in - - ()
Sea Level Pressure  
Sea Level Pressure 29.66 in    
Wind  
Wind Speed 10 mph ()    
Max Wind Speed 21 mph    
Max Gust Speed -    
Visibility 6.0 miles    
Events Rain    
T = Trace of Precipitation, MM = Missing Value Source: Averaged Metar Reports

Daily Weather History Graph

Daily Weather History Graph

Search for Another Location

Airport or City:

Trip Planner

Search our weather history database for the weather conditions in past years. The results will help you decide how hot, cold, wet, or windy it might be!

Date:

Astronomy

Jan. 25, 2013 Rise Set
Actual Time 7:21 AM EET 5:13 PM EET
Civil Twilight 6:51 AM EET 5:42 PM EET
Nautical Twilight 6:18 AM EET 6:16 PM EET
Astronomical Twilight 5:46 AM EET 6:48 PM EET
Moon 3:51 PM EET (1/25) 5:47 AM EET (1/25)
Length of Visible Light 10h 50m
Length of Day
9h 51m
Waxing Gibbous, 97% of the Moon is Illuminated
Jan 25
Waxing Gibbous
Jan 27
Full
Feb 3
Last Quarter
Feb 10
New
Feb 17
First Quarter

Hourly Weather History & Observations

Time (EET) Temp. Windchill Dew Point Humidity Pressure Visibility Wind Dir Wind Speed Gust Speed Precip Events Conditions
12:20 AM 55.4 °F - 42.8 °F 63% 29.62 in 6.2 mi SE 9.2 mph - N/A   Mostly Cloudy
12:50 AM 55.4 °F - 41.0 °F 58% 29.59 in 6.2 mi SE 10.4 mph - N/A   Mostly Cloudy
1:20 AM 57.2 °F - 41.0 °F 55% 29.56 in 6.2 mi SSE 12.7 mph - N/A Rain Light Rain Showers
1:50 AM 55.4 °F - 42.8 °F 63% 29.59 in 6.2 mi South 9.2 mph - N/A Rain Light Rain Showers
2:00 AM 55 °F - 42 °F 51% 29.60 in 6 mi South 9.2 mph - - Rain Light Rain Showers
2:20 AM 50.0 °F - 46.4 °F 87% 29.62 in 6.2 mi NW 16.1 mph - N/A Rain Light Rain Showers
2:50 AM 50.0 °F - 46.4 °F 87% 29.62 in 6.2 mi NW 13.8 mph - N/A Rain Light Rain Showers
3:20 AM 50.0 °F - 46.4 °F 87% 29.62 in 6.2 mi NW 16.1 mph - N/A Rain Light Rain Showers
3:50 AM 50.0 °F - 46.4 °F 87% 29.62 in 6.2 mi NW 13.8 mph - N/A Rain Light Rain Showers
4:20 AM 48.2 °F - 46.4 °F 93% 29.62 in 6.2 mi WSW 11.5 mph - N/A Rain Light Rain Showers
4:50 AM 46.4 °F 43.5 °F 46.4 °F 100% 29.62 in 6.2 mi SW 5.8 mph - N/A Rain Light Rain Showers
5:20 AM 46.4 °F 41.1 °F 46.4 °F 100% 29.62 in 6.2 mi South 11.5 mph - N/A Rain Light Rain Showers
5:50 AM 46.4 °F 41.9 °F 46.4 °F 100% 29.59 in 6.2 mi SSE 9.2 mph - N/A Rain Light Rain Showers
6:20 AM 48.2 °F - 46.4 °F 93% 29.59 in 6.2 mi South 16.1 mph - N/A Rain Light Rain Showers
6:50 AM 48.2 °F - 42.8 °F 82% 29.59 in 6.2 mi South 16.1 mph - N/A Rain Light Rain Showers
7:20 AM 48.2 °F - 42.8 °F 82% 29.59 in 6.2 mi SSW 15.0 mph - N/A Rain Light Rain Showers
7:50 AM 48.2 °F - 42.8 °F 82% 29.62 in 6.2 mi SSW 15.0 mph - N/A Rain Light Rain Showers
8:00 AM 49 °F - 41 °F 67% 29.62 in 6 mi SSW 15.0 mph - - Rain Light Rain Showers
8:20 AM 48.2 °F - 42.8 °F 82% 29.62 in 6.2 mi SSW 12.7 mph - N/A   Mostly Cloudy
8:50 AM 48.2 °F - 42.8 °F 82% 29.62 in 6.2 mi SSW 15.0 mph - N/A   Mostly Cloudy
9:20 AM 50.0 °F - 42.8 °F 76% 29.62 in 6.2 mi SSW 13.8 mph - N/A   Mostly Cloudy
9:50 AM 50.0 °F - 42.8 °F 76% 29.62 in 6.2 mi SSW 16.1 mph - N/A   Mostly Cloudy
10:20 AM 50.0 °F - 42.8 °F 76% 29.62 in 6.2 mi SSW 16.1 mph - N/A   Mostly Cloudy
10:50 AM 50.0 °F - 44.6 °F 82% 29.65 in 6.2 mi SSW 17.3 mph - N/A   Mostly Cloudy
11:20 AM 51.8 °F - 44.6 °F 76% 29.65 in 6.2 mi South 13.8 mph - N/A   Scattered Clouds
11:50 AM 53.6 °F - 44.6 °F 72% 29.65 in 6.2 mi SSW 12.7 mph - N/A   Scattered Clouds
12:20 PM 53.6 °F - 46.4 °F 77% 29.65 in 6.2 mi SSW 11.5 mph - N/A   Scattered Clouds
12:50 PM 53.6 °F - 44.6 °F 72% 29.65 in 6.2 mi SSW 10.4 mph - N/A   Scattered Clouds
1:20 PM 55.4 °F - 44.6 °F 67% 29.65 in 6.2 mi SSW 12.7 mph - N/A   Scattered Clouds
1:50 PM 55.4 °F - 44.6 °F 67% 29.65 in 6.2 mi SW 11.5 mph - N/A   Scattered Clouds
2:00 PM 55 °F - 43 °F 54% 29.67 in 6 mi SW 11.5 mph - -   Partly Cloudy
2:20 PM 55.4 °F - 44.6 °F 67% 29.68 in 6.2 mi SW 10.4 mph - N/A   Scattered Clouds
2:50 PM 55.4 °F - 44.6 °F 67% 29.68 in 6.2 mi SW 8.1 mph - N/A   Scattered Clouds
3:20 PM 55.4 °F - 42.8 °F 63% 29.68 in 6.2 mi SSW 6.9 mph - N/A   Scattered Clouds
3:50 PM 53.6 °F - 44.6 °F 72% 29.68 in 6.2 mi SSW 3.5 mph - N/A   Scattered Clouds
4:20 PM 55.4 °F - 44.6 °F 67% 29.68 in 6.2 mi South 6.9 mph - N/A   Scattered Clouds
4:50 PM 53.6 °F - 42.8 °F 67% 29.68 in 6.2 mi South 3.5 mph - N/A   Scattered Clouds
5:20 PM 51.8 °F - 42.8 °F 71% 29.68 in 6.2 mi SW 4.6 mph - N/A   Scattered Clouds
5:50 PM 53.6 °F - 42.8 °F 67% 29.68 in 6.2 mi SW 4.6 mph - N/A   Scattered Clouds
6:20 PM 55.4 °F - 42.8 °F 63% 29.68 in 6.2 mi SW 6.9 mph - N/A   Scattered Clouds
6:50 PM 55.4 °F - 42.8 °F 63% 29.71 in 6.2 mi West 4.6 mph - N/A   Scattered Clouds
7:20 PM 55.4 °F - 41.0 °F 58% 29.71 in 6.2 mi West 3.5 mph - N/A   Scattered Clouds
7:50 PM 53.6 °F - 41.0 °F 62% 29.71 in 6.2 mi Variable 2.3 mph - N/A   Scattered Clouds
8:00 PM 54 °F - 42 °F 54% 29.72 in 6 mi NW 2.3 mph - -   Partly Cloudy
8:20 PM 55.4 °F - 41.0 °F 58% 29.71 in 6.2 mi Variable 2.3 mph - N/A   Scattered Clouds
8:50 PM 53.6 °F - 42.8 °F 67% 29.71 in 6.2 mi ESE 4.6 mph - N/A Rain Light Rain Showers
9:20 PM 50.0 °F - 46.4 °F 87% 29.71 in 5.0 mi NNW 17.3 mph - N/A Rain Light Rain Showers
9:50 PM 46.4 °F 39.5 °F 46.4 °F 100% 29.74 in 4.3 mi NNW 17.3 mph - N/A Rain Light Rain Showers
10:20 PM 46.4 °F 39.8 °F 46.4 °F 100% 29.77 in 4.3 mi North 16.1 mph - N/A Rain Light Rain Showers
10:50 PM 46.4 °F 40.1 °F 44.6 °F 93% 29.77 in 4.3 mi North 15.0 mph - N/A Rain Light Rain Showers
11:20 PM 44.6 °F 36.4 °F 42.8 °F 93% 29.77 in 4.3 mi North 20.7 mph - N/A Rain Light Rain Showers
11:50 PM 44.6 °F 36.4 °F 41.0 °F 87% 29.74 in 6.2 mi North 20.7 mph - N/A Rain Light Rain Showers